Calgary Springbank,

11:03 PM MDT on September 21, 2017 (GMT -0600)
Calgary Springbank

Weather History for CYBW - May, 2013

Change the Weather History Date:

Tuesday, May 14, 2013

  Actual Average Record
Temperature  
Mean Temperature 50 °F -  
Max Temperature 59 °F 58 °F 77 °F (1997)
Min Temperature 37 °F 36 °F 23 °F (2016)
Degree Days  
Heating Degree Days 14    
Moisture  
Dew Point 34 °F    
Average Humidity 53    
Maximum Humidity 87    
Minimum Humidity 34    
Precipitation  
Precipitation 0.04 in - - ()
Sea Level Pressure  
Sea Level Pressure 29.93 in    
Wind  
Wind Speed 10 mph ()    
Max Wind Speed 18 mph    
Max Gust Speed 22 mph    
Visibility 17.5 miles    
Events Rain    
Averages and records for this station are not official NWS values.
T = Trace of Precipitation, MM = Missing Value Source: Averaged Metar Reports

Daily Weather History Graph

Daily Weather History Graph

Search for Another Location

Airport or City:

Trip Planner

Search our weather history database for the weather conditions in past years. The results will help you decide how hot, cold, wet, or windy it might be!

Date:

Astronomy

May. 14, 2013 Rise Set
Actual Time 5:48 AM MDT 9:20 PM MDT
Civil Twilight 5:07 AM MDT 10:01 PM MDT
Nautical Twilight 4:12 AM MDT 10:56 PM MDT
Astronomical Twilight 2:54 AM MDT 12:17 AM MDT
Moon 9:33 AM MDT (5/14) 12:30 AM MDT (5/14)
Length of Visible Light 16h 53m
Length of Day
15h 32m
Waxing Crescent, 19% of the Moon is Illuminated
May 14
Waxing Crescent
May 17
First Quarter
May 24
Full
May 31
Last Quarter
Jun 8
New

Hourly Weather History & Observations

Time (MDT) Temp. Windchill Dew Point Humidity Pressure Visibility Wind Dir Wind Speed Gust Speed Precip Events Conditions
5:00 AM 48.2 °F - 28.4 °F 46% 29.81 in 15.0 mi West 13.8 mph 19.6 mph N/A   Overcast
6:00 AM 42 °F - 27 °F 44% 29.87 in 28 mi WNW 8.1 mph - -   Haze
6:00 AM 42.8 °F 39.3 °F 26.6 °F 53% 29.86 in 30.0 mi WNW 5.8 mph - N/A   Mostly Cloudy
7:00 AM 48.2 °F - 30.2 °F 50% 29.88 in 30.0 mi NNW 12.7 mph - N/A   Mostly Cloudy
8:00 AM 53.6 °F - 30.2 °F 41% 29.89 in 30.0 mi NW 18.4 mph - N/A   Mostly Cloudy
9:00 AM 53.6 °F - 30.2 °F 41% 29.91 in 30.0 mi NW 15.0 mph - N/A   Mostly Cloudy
10:00 AM 53.6 °F - 28.4 °F 38% 29.92 in 30.0 mi NW 8.1 mph - N/A   Mostly Cloudy
11:00 AM 55.4 °F - 28.4 °F 36% 29.92 in 30.0 mi West 11.5 mph - N/A   Overcast
12:00 PM 55.4 °F - 32.0 °F 41% 29.92 in 30.0 mi NE 4.6 mph - N/A   Overcast
1:00 PM 59.0 °F - 30.2 °F 34% 29.90 in 30.0 mi SW 11.5 mph 18.4 mph N/A   Overcast
2:00 PM 53.6 °F - 33.8 °F 47% 29.92 in 30.0 mi NNE 16.1 mph 21.9 mph N/A Rain Light Rain Showers
2:29 PM 60.8 °F - 35.6 °F 39% 29.91 in 30.0 mi NE 13.8 mph 19.6 mph N/A   Mostly Cloudy
3:00 PM 55.4 °F - 33.8 °F 44% 29.92 in 30.0 mi North 16.1 mph 21.9 mph N/A   Mostly Cloudy
4:00 PM 57.2 °F - 33.8 °F 41% 29.92 in 30.0 mi East 12.7 mph - N/A   Mostly Cloudy
5:00 PM 51.8 °F - 35.6 °F 54% 29.94 in 30.0 mi East 11.5 mph - N/A   Mostly Cloudy
5:05 PM 51.8 °F - 37.4 °F 58% 29.95 in 30.0 mi East 11.5 mph 17.3 mph N/A Rain Light Rain Showers
6:00 PM 49 °F - 40 °F 62% 29.99 in 28 mi NNE 3.5 mph - - Rain Light Rain Showers
6:00 PM 48.2 °F - 39.2 °F 71% 29.99 in 30.0 mi NNW 5.8 mph - N/A Rain Light Rain Showers
6:18 PM 50.0 °F - 42.8 °F 76% 29.98 in 30.0 mi NE 10.4 mph - N/A   Mostly Cloudy
7:00 PM 51.8 °F - 37.4 °F 58% 29.95 in 30.0 mi East 8.1 mph - N/A   Mostly Cloudy
8:00 PM 46.4 °F 41.9 °F 39.2 °F 76% 29.98 in 30.0 mi North 9.2 mph - N/A   Mostly Cloudy
9:00 PM 44.6 °F 41.4 °F 37.4 °F 76% 30.00 in 30.0 mi NNW 5.8 mph - N/A   Mostly Cloudy
10:00 PM 37.4 °F 32.1 °F 33.8 °F 87% 30.04 in 20.0 mi West 6.9 mph - N/A   Mostly Cloudy